カタログに戻る

SL-8 R/B

運用中LEO
NORAD 16457·ROCKET BODY·🇷🇺 Russia

打ち上げ Jan 9, 1986 から Plesetsk Cosmodrome

Loading…

次のパス (今後24時間)

TLE

最新Source: Space-Track

元期: Sep 14, 2026, 10:44 UTC

1 16457U 86002J   26257.44733527  .00000034  00000-0  44918-3 0  9992
2 16457  73.9914 143.8668 0134206  64.5988 107.4476 12.20753705716601

AllMySatでSL-8 R/Bをリアルタイム追跡

Download on the App Store